Weather History for KAGS - January, 2014

Change the Weather History Date:

Saturday, January 18, 2014

  Actual Average Record
Temperature  
Mean Temperature 37 °F 45 °F  
Max Temperature 46 °F 58 °F 80 °F (1928)
Min Temperature 28 °F 33 °F 14 °F (2003)
Degree Days  
Heating Degree Days 28 20  
Month to date heating degree days 425 360  
Since 1 July heating degree days 1342 1335  
Cooling Degree Days 0 0  
Month to date cooling degree days 0 0  
Year to date cooling degree days 0 0  
Moisture  
Dew Point 16 °F    
Average Humidity 44    
Maximum Humidity 63    
Minimum Humidity 25    
Precipitation  
Precipitation 0.00 in 0.12 in 2.33 in (1925)
Month to date precipitation 2.22 2.22  
Year to date precipitation 2.22 2.22  
Sea Level Pressure  
Sea Level Pressure 30.11 in    
Wind  
Wind Speed 9 mph (West)    
Max Wind Speed 24 mph    
Max Gust Speed 31 mph    
Visibility 10 miles    
Events      
T = Trace of Precipitation, MM = Missing Value Source: NWS Daily Summary

Daily Weather History Graph

Daily Weather History Graph

Search for Another Location

Airport or City:

Trip Planner

Search our weather history database for the weather conditions in past years. The results will help you decide how hot, cold, wet, or windy it might be!

Date:

Astronomy

Jan. 18, 2014 Rise Set
Actual Time 7:30 AM EST 5:46 PM EST
Civil Twilight 7:04 AM EST 6:12 PM EST
Nautical Twilight 6:33 AM EST 6:43 PM EST
Astronomical Twilight 6:04 AM EST 7:12 PM EST
Moon 8:16 PM EST (1/18) 8:38 AM EST (1/18)
Length of Visible Light 11h 08m
Length of Day
10h 15m
Waning Gibbous, 94% of the Moon is Illuminated
Jan 18
Waning Gibbous
Jan 24
Last Quarter
Jan 30
New
Feb 6
First Quarter
Feb 14
Full

Hourly Weather History & Observations

Time (EST) Temp. Windchill Dew Point Humidity Pressure Visibility Wind Dir Wind Speed Gust Speed Precip Events Conditions
12:53 AM 39.9 °F 32.9 °F 19.0 °F 43% 30.03 in 10.0 mi WNW 11.5 mph - N/A   Clear
1:53 AM 37.9 °F 29.6 °F 18.0 °F 45% 30.05 in 10.0 mi WNW 13.8 mph 27.6 mph N/A   Clear
2:53 AM 36.0 °F 27.5 °F 15.1 °F 43% 30.08 in 10.0 mi WNW 12.7 mph - N/A   Clear
3:53 AM 34.0 °F 24.2 °F 12.9 °F 42% 30.09 in 10.0 mi West 15.0 mph 25.3 mph N/A   Clear
4:53 AM 30.9 °F 26.2 °F 14.0 °F 50% 30.09 in 10.0 mi West 4.6 mph - N/A   Clear
5:53 AM 30.0 °F 21.1 °F 16.0 °F 56% 30.11 in 10.0 mi West 10.4 mph - N/A   Clear
6:53 AM 28.9 °F 21.9 °F 14.0 °F 54% 30.13 in 10.0 mi West 6.9 mph - N/A   Clear
7:53 AM 30.0 °F 23.2 °F 15.1 °F 54% 30.15 in 10.0 mi WSW 6.9 mph - N/A   Clear
8:53 AM 33.1 °F 24.4 °F 15.1 °F 48% 30.17 in 10.0 mi West 11.5 mph - N/A   Clear
9:53 AM 36.0 °F 27.1 °F 14.0 °F 41% 30.19 in 10.0 mi WNW 13.8 mph 23.0 mph N/A   Clear
10:53 AM 39.0 °F 30.3 °F 14.0 °F 36% 30.19 in 10.0 mi West 16.1 mph 21.9 mph N/A   Clear
11:53 AM 41.0 °F 32.8 °F 14.0 °F 33% 30.18 in 10.0 mi West 16.1 mph 24.2 mph N/A   Clear
12:53 PM 43.0 °F 37.7 °F 14.0 °F 31% 30.14 in 10.0 mi WNW 9.2 mph - N/A   Clear
1:53 PM 45.0 °F 38.9 °F 14.0 °F 29% 30.12 in 10.0 mi WSW 12.7 mph 21.9 mph N/A   Clear
2:53 PM 46.0 °F 40.6 °F 14.0 °F 28% 30.10 in 10.0 mi WNW 11.5 mph 23.0 mph N/A   Clear
3:53 PM 46.0 °F 41.0 °F 12.9 °F 26% 30.10 in 10.0 mi West 10.4 mph 18.4 mph N/A   Clear
4:53 PM 45.0 °F 40.1 °F 12.9 °F 27% 30.10 in 10.0 mi West 9.2 mph 19.6 mph N/A   Clear
5:53 PM 39.9 °F 35.1 °F 15.1 °F 36% 30.11 in 10.0 mi West 6.9 mph - N/A   Clear
6:53 PM 35.1 °F - 19.0 °F 52% 30.10 in 10.0 mi Calm Calm - N/A   Clear
7:53 PM 30.9 °F - 19.0 °F 61% 30.11 in 10.0 mi Calm Calm - N/A   Clear
8:53 PM 30.9 °F 26.2 °F 18.0 °F 59% 30.09 in 10.0 mi South 4.6 mph - N/A   Clear
9:53 PM 30.9 °F 25.2 °F 18.0 °F 59% 30.08 in 10.0 mi South 5.8 mph - N/A   Clear
10:53 PM 32.0 °F 25.6 °F 18.0 °F 56% 30.07 in 10.0 mi South 6.9 mph - N/A   Clear
11:53 PM 30.0 °F - 19.9 °F 66% 30.09 in 10.0 mi Calm Calm - N/A   Clear